Regional Weather Roundup
Issued by NWS

Home | Current Version | Previous Version | Text Only | Print | Product List | Glossary On
Versions: 1 2 3 4 5 6 7 8 9 10 11 12 13 14 15 16 17 18 19 20 21 22 23 24 25 26 27 28 29 30 31 32 33 34 35 36 37 38 39 40 41 42 43 44 45 46 47 48 49 50
000
ASUS43 KMPX 241410
RWRMN
WEATHER ROUNDUP FOR MINNESOTA
NATIONAL WEATHER SERVICE TWIN CITIES/CHANHASSEN MN
900 AM CDT FRI MAR 24 2017


NOTE: "FAIR" INDICATES FEW OR NO CLOUDS BELOW 12,000 FEET WITH NO
SIGNIFICANT WEATHER AND/OR OBSTRUCTIONS TO VISIBILITY. N/A MEANS
CURRENT SKY AND/OR WEATHER CONDITIONS ARE NOT AVAILABLE.

MNZ060>063-068>070-241500-
   Twin Cities Metro

CITY           SKY/WX    TMP DP  RH WIND       PRES   REMARKS
TWIN CITIES    CLOUDY    38  35  89 NE12      29.92S
ST PAUL        CLOUDY    38  37  97 N6        29.94R FOG
CRYSTAL        CLOUDY    37  33  85 N9        29.93R FOG
BLAINE           N/A     37  37 100 N8        29.93S FOG
LAKEVILLE      CLOUDY    37  37 100 N9        29.92R FOG
EDEN PRAIRIE   CLOUDY    39  36  89 N9        29.91R FOG
SOUTH ST PAUL  CLOUDY    39  38  96 N8        29.92S FOG
LAKE ELMO      RAIN      37  36  93 CALM      29.94R
$$
MNZ001>005-007-008-013>017-022>024-027-028-241500-
   Northwest Minnesota

CITY           SKY/WX    TMP DP  RH WIND       PRES   REMARKS
BEMIDJI        CLOUDY    34  32  94 N7        30.04R WCI  27
HALLOCK        CLOUDY    28  27  93 N14       30.14R WCI  17
ROSEAU         SUNNY     30  25  80 N10       30.11R WCI  21
WARROAD        SUNNY     30  25  80 N10       30.10R WCI  21
THIEF RVR FALL SUNNY     30  25  81 N15       30.11R WCI  19
CROOKSTON      MOSUNNY   30  27  86 N16       30.12R WCI  19
FOSSTON        CLOUDY    30  30 100 N8        30.08R FOG     WCI  23
DETROIT LAKES  CLOUDY    34  34 100 N5        30.05R FOG     WCI  30
MOORHEAD       CLOUDY    34  32  93 N12       30.09R FOG     WCI  25
PARK RAPIDS    CLOUDY    35  31  85 N8        30.02R WCI  29
MAHNOMEN       CLOUDY    33  32  95 N8        30.07R WCI  26
$$
MNZ006-009>011-018-025>026-241500-
   North Central Minnesota

CITY           SKY/WX    TMP DP  RH WIND       PRES   REMARKS
BAUDETTE       SUNNY     30  26  85 NW10      30.06R WCI  21
FLAG ISLAND    SUNNY     28  25  86 NW9       30.09R WCI  20
INTL FALLS     CLOUDY    34  31  88 N7        30.03R WCI  28
WASKISH        CLOUDY    32  30  93 N6        30.06R WCI  26
BIG FORK       CLOUDY    36  32  87 N7        30.01S FOG
LONGVILLE      CLOUDY    34  34 100 N5        30.01R FOG     WCI  30
GRAND RAPIDS   CLOUDY    34  32  92 N9        30.01R FOG     WCI  27
CRANE LAKE     CLOUDY    32  32 100 CALM      30.03R FOG
ORR            CLOUDY    34  30  86 CALM      29.98R FOG
COOK           CLOUDY    34  32  93 CALM      30.00R FOG
WALKER         CLOUDY    32  32  98 N5        30.03R FOG     WCI  28
$$
MNZ012-019>021-037-241500-
   Northeast Minnesota

CITY           SKY/WX    TMP DP  RH WIND       PRES   REMARKS
DULUTH         CLOUDY    34  32  92 N8        29.96R FOG     WCI  27
ELY            CLOUDY    32  32 100 N3        29.98R FOG
HIBBING        CLOUDY    32  31  96 N10       29.98R FOG     WCI  24
EVELETH        CLOUDY    33  31  94 N6        29.99R FOG     WCI  27
DULUTH HARBOR  CLOUDY    34  34 100 CALM      30.00R FOG
TWO HARBORS    CLOUDY    37  32  81 CALM      29.95R HAZE
SILVER BAY     CLOUDY    34  34 100 CALM      29.96R FOG
GRAND MARAIS     N/A     36  32  85 CALM      29.97R
G MARAIS ARPRT CLOUDY    30  27  86 N13G18    29.93R FOG     WCI  20
$$
MNZ029>031-032-039>041-046>048-054>057-064-241500-
   West Central Minnesota

CITY           SKY/WX    TMP DP  RH WIND       PRES   REMARKS
FERGUS FALLS   CLOUDY    36  36 100 N12G17    30.07R
WHEATON        CLOUDY    36  34  93 NW9       30.06R FOG
MORRIS         CLOUDY    36  34  93 N12       30.01R FOG
ALEXANDRIA     CLOUDY    35  33  92 N12       30.01R WCI  27
ELBOW LAKE     CLOUDY    34  33  98 N10       30.02R FOG     WCI  26
WADENA         CLOUDY    34  34 100 N9        30.00F FOG     WCI  26
GLENWOOD       CLOUDY    36  34  93 N12       29.99S FOG
APPLETON       CLOUDY    37  34  87 N14       30.01R
BENSON         PTSUNNY   37  34  87 NE10      30.02R HAZE
ORTONVILLE     CLOUDY    36  34  93 N14       30.03R FOG
MADISON        CLOUDY    37  37 100 N13       30.01R
WILLMAR        PTSUNNY   37  37 100 N13       29.99R
$$
MNZ033>034-036-042>043-049>051-058-059-241500-
   Central Minnesota

CITY           SKY/WX    TMP DP  RH WIND       PRES   REMARKS
ST CLOUD       CLOUDY    36  34  92 N10       29.97R
SAUK CENTRE    CLOUDY    35  33  93 N10       29.99R WCI  27
PAYNESVILLE      N/A     35  35 100 N8        29.98R WCI  28
AITKIN         CLOUDY    37  32  81 N12       29.98R HAZE
PINE RIVER     CLOUDY    34  34 100 N8        30.04R FOG     WCI  27
BRAINERD       CLOUDY    34  33  96 N9        30.00R FOG     WCI  27
STAPLES        CLOUDY    34  34 100 N9        30.00S FOG     WCI  26
LONG PRAIRIE   CLOUDY    34  32  93 NW9       30.00R FOG     WCI  26
LITTLE FALLS   CLOUDY    34  32  93 N3        29.99S FOG
LITCHFIELD     CLOUDY    37  36  93 N9        29.96R FOG
BUFFALO        CLOUDY    35  34  94 N9        29.96R FOG     WCI  28
MAPLE LAKE     CLOUDY    36  36  99 N7        29.97R FOG
HUTCHINSON     CLOUDY    37  37  99 N9        29.96R FOG
$$
MNZ037-044-045-052-053-241500-
   East Central Minnesota

CITY           SKY/WX    TMP DP  RH WIND       PRES   REMARKS
PRINCETON      CLOUDY    37  36  93 N6        29.96S FOG
MORA           MOSUNNY   34  34 100 N6        29.99R WCI  29
CAMBRIDGE      CLOUDY    37  34  87 N6        29.94S FOG
RUSH CITY      CLOUDY    35  34  95 N7        29.96R FOG     WCI  29
MOOSE LAKE     CLOUDY    34  32  93 N7        29.96S FOG     WCI  28
HINCKLEY       CLOUDY    36  34  93 N8        29.97R FOG
CLOQUET        CLOUDY    34  32  93 NW8       29.97R FOG     WCI  27
MCGREGOR       CLOUDY    34  34 100 N8        29.99R WCI  27
$$
MNZ071>073-080-081-089-090-097-098-241500-
   Southwest Minnesota

CITY           SKY/WX    TMP DP  RH WIND       PRES   REMARKS
MONTEVIDEO     CLOUDY    36  36 100 NE12      30.01R FOG
GRANITE FALLS  CLOUDY    37  36  94 N13       30.00R FOG
CANBY          CLOUDY    36  36  99 N13G20    30.01R FOG
MARSHALL       CLOUDY    35  34  96 N16       29.98R FOG     WCI  25
REDWOOD FALLS  CLOUDY    37  34  89 N10       29.96R FOG
OLIVIA         CLOUDY    36  34  93 N13       29.96R FOG
PIPESTONE      CLOUDY    36  32  87 NE15G21   29.94R FOG
WINDOM         FOG       36  36 100 N13       29.93R VSB<1/4
WORTHINGTON    LGT RAIN  35  35 100 N13G22    29.92R VSB 1/4 WCI  26
JACKSON        FOG       36  36 100 N12       29.91R VSB 1/2
TRACY          CLOUDY    36  36 100 N10       29.97R FOG
SLAYTON        FOG       34  34 100 N17G23    29.94R VSB 3/4 WCI  23
$$
MNZ065>067-074>077-082>085-091>093-241500-
   South Central Minnesota

CITY           SKY/WX    TMP DP  RH WIND       PRES   REMARKS
MANKATO        FOG       38  37  97 N9        29.93R VSB 3/4
NEW ULM        CLOUDY    37  36  93 N7        29.94R FOG
ST JAMES       CLOUDY    37  37 100 CALM      29.94R FOG
FAIRMONT       CLOUDY    38  37  97 N16       29.91R FOG
GLENCOE        CLOUDY    37  37 100 N8        29.94R FOG
FARIBAULT      DRIZZLE   37  37 100 N7        29.91R
OWATONNA       CLOUDY    37  36  93 N10       29.90R FOG
WASECA         CLOUDY    36  36 100 N12       29.91R FOG
ALBERT LEA     DRIZZLE   37  37 100 CALM      29.88R
$$
MNZ078>079-086>088-094>096-241500-
   Southeast Minnesota

CITY           SKY/WX    TMP DP  RH WIND       PRES   REMARKS
ROCHESTER      CLOUDY    38  37  97 NE10      29.87R FOG
RED WING       DRIZZLE   39  37  93 NE6       29.89F
STANTON        DRIZZLE   38  37  92 N9        29.90R
DODGE CENTER   RAIN      37  36  93 N10       29.87R
WINONA         CLOUDY    37  37 100 CALM      29.92R FOG
AUSTIN         CLOUDY    39  37  93 NE5       29.87R FOG
PRESTON        CLOUDY    38  36  94 N7        29.88R FOG
$$
ABBREVIATIONS USED IN REMARKS
   TC - TEMPERATURES IN CELSIUS
  WCI - WIND CHILL INDEX
   HX - HEAT INDEX
  VSB - VISIBILITY
$$




USA.gov is the U.S. government's official web portal to all federal, state and local government web resources and services.